Starlink 3618

operational
NORAD ID: 51998 Int'l Des: 2022-025 Owner: SPXS Country: US Constellation: starlink
LEOCIRCULAR

Starlink 3618について

説明を読み込み中...

リアルタイム位置

3D地球を読み込み中...

次回通過

高度履歴

Altitude vs Time

uPlot chart will show altitude changes over time

軌道要素

1 51998U 22025AU 25342.61801085 .00032783 00000-0 20651-2 0 9997
2 51998 53.2164 67.9571 0000886 84.5725 275.5368 15.08897476207171
Epoch: Dec 8, 2025 • Age: 10 hours

現在のステータス

高度 545.4 km
速度 7.59 km/s
衛星直下点 -20.16°S, 164.66°E
打ち上げ日 Mar 9, 2022
運用期間 3.7 years
タイプ internet

技術仕様

分類 Payload
質量 297.00 kg
乾燥質量 275.00 kg
総質量 297.00 kg
長さ 0.20 m
直径 2.80 m
スパン 9.00 m
形状 Box + pan
製造者 SPXS
バスタイプ Starlink
フェーズステータス In Orbit
所有者/国 SPXS/US

大規模コンステレーション

Loading constellations...